User: anonymous   Login
Location: Unspecified
(0.0000°N, 0.0000°E)
Time: 20:46:41
(UTC+00:00)
Language:

S-56A Canister/Altair - Orbit

View from above orbital plane
View from above orbital plane
View from above satellite
View from above satellite

Ground track
Ground track

The orbit data is extracted from the following two-line orbital elements,

1    82U 61004B   19258.12761689 +.00000027 +00000-0 +52064-4 0  9996
2    82 038.8572 141.5431 1174341 189.9700 167.5636 12.26049792773899
Epoch (UTC): 15 September 2019 03:03:46
Eccentricity: 0.1174341
inclination: 38.8572°
perigee height: 633 km
apogee height: 2499 km
right ascension of ascending node: 141.5431°
argument of perigee: 189.9700°
revolutions per day: 12.26049792
mean anomaly at epoch: 167.5636°
orbit number at epoch: 77389

The dashed part of the orbit path shows where the satellite is in the earth's shadow,  

DLR